Weather History for CYQR - March, 2013

Change the Weather History Date:

Saturday, March 16, 2013

  Actual Average Record
Temperature  
Mean Temperature -5 °F -  
Max Temperature 5 °F 25 °F 60 °F (2012)
Min Temperature -13 °F 9 °F -13 °F (2013)
Degree Days  
Heating Degree Days 70    
Moisture  
Dew Point -9 °F    
Average Humidity 71    
Maximum Humidity 85    
Minimum Humidity 58    
Precipitation  
Precipitation 0.00 in - - ()
Sea Level Pressure  
Sea Level Pressure 30.33 in    
Wind  
Wind Speed 8 mph ()    
Max Wind Speed 18 mph    
Max Gust Speed -    
Visibility 13.4 miles    
Events Snow    
Averages and records for this station are not official NWS values.
T = Trace of Precipitation, MM = Missing Value Source: Averaged Metar Reports

Daily Weather History Graph

Daily Weather History Graph

Search for Another Location

Airport or City:

Trip Planner

Search our weather history database for the weather conditions in past years. The results will help you decide how hot, cold, wet, or windy it might be!

Date:

Astronomy

Mar. 16, 2013 Rise Set
Actual Time 7:09 AM CST 7:05 PM CST
Civil Twilight 6:37 AM CST 7:38 PM CST
Nautical Twilight 5:58 AM CST 8:16 PM CST
Astronomical Twilight 5:19 AM CST 8:55 PM CST
Moon 9:09 AM CST (3/16) No Moon Set
Length of Visible Light 13h 01m
Length of Day
11h 56m
Waxing Crescent, 23% of the Moon is Illuminated
Mar 16
Waxing Crescent
Mar 19
First Quarter
Mar 27
Full
Apr 2
Last Quarter
Apr 10
New

Hourly Weather History & Observations

Time (CST) Temp. Windchill Dew Point Humidity Pressure Visibility Wind Dir Wind Speed Gust Speed Precip Events Conditions
12:00 AM -6 °F - -12 °F 64% 30.34 in 9 mi West 6.9 mph - -  
12:00 AM -5.8 °F -18.4 °F -11.2 °F 77% 30.33 in 15.0 mi West 5.8 mph - N/A   Partly Cloudy
12:34 AM -4.0 °F -19.0 °F - N/A% - 6.0 mi West 8.1 mph - N/A Snow Light Snow
1:00 AM -2.2 °F -16.8 °F -9.4 °F 71% 30.34 in 4.0 mi WNW 8.1 mph - N/A Snow Light Snow
2:00 AM -2.2 °F -14.2 °F -7.6 °F 78% 30.35 in 10.0 mi WNW 5.8 mph - N/A Snow Light Snow
2:40 AM -4.0 °F -22.1 °F - N/A% - 15.0 mi NNW 11.5 mph - N/A   Partly Cloudy
3:00 AM -5.8 °F -22.4 °F -13.0 °F 71% 30.35 in 15.0 mi NNW 9.2 mph - N/A   Clear
4:00 AM -9.4 °F -27.9 °F -16.6 °F 71% 30.35 in 15.0 mi NNW 10.4 mph - N/A   Clear
5:00 AM -7.6 °F -29.1 °F -14.8 °F 71% 30.35 in 15.0 mi North 15.0 mph - N/A   Partly Cloudy
5:43 AM -5.8 °F -24.4 °F - N/A% - 15.0 mi North 11.5 mph - N/A   Scattered Clouds
6:00 AM -8 °F - -14 °F 62% 30.35 in 9 mi North 9.2 mph - -  
6:00 AM -7.6 °F -24.6 °F -13.0 °F 77% 30.35 in 15.0 mi North 9.2 mph - N/A   Partly Cloudy
7:00 AM -11.2 °F -27.8 °F -18.4 °F 70% 30.36 in 15.0 mi NNW 8.1 mph - N/A   Partly Cloudy
8:00 AM -13.0 °F -27.0 °F -20.2 °F 70% 30.37 in 15.0 mi NNW 5.8 mph - N/A   Partly Cloudy
9:00 AM -11.2 °F - -16.6 °F 77% 30.39 in 15.0 mi West 2.3 mph - N/A   Partly Cloudy
10:00 AM -7.6 °F -20.6 °F -13.0 °F 77% 30.40 in 15.0 mi NNW 5.8 mph - N/A   Mostly Cloudy
11:00 AM -4.0 °F -19.0 °F -9.4 °F 78% 30.40 in 15.0 mi NNW 8.1 mph - N/A   Scattered Clouds
12:00 PM -1 °F - -6 °F 70% 30.40 in 7 mi NW 5.8 mph - -  
12:00 PM -0.4 °F -12.0 °F -5.8 °F 78% 30.40 in 15.0 mi NW 5.8 mph - N/A   Mostly Cloudy
1:00 PM -0.4 °F -16.7 °F -4.0 °F 85% 30.40 in 15.0 mi NNW 10.4 mph - N/A   Partly Cloudy
2:00 PM 3.2 °F -10.3 °F -4.0 °F 72% 30.38 in 15.0 mi NW 8.1 mph - N/A   Mostly Cloudy
3:00 PM 3.2 °F -7.8 °F -2.2 °F 78% 30.35 in 15.0 mi SW 5.8 mph - N/A   Overcast
4:00 PM 3.2 °F -7.8 °F -4.0 °F 72% 30.33 in 15.0 mi SSE 5.8 mph - N/A   Overcast
5:00 PM 3.2 °F -11.3 °F -5.8 °F 66% 30.32 in 15.0 mi SSE 9.2 mph - N/A   Mostly Cloudy
6:00 PM 3 °F - -5 °F 58% 30.30 in 9 mi SE 10.4 mph - -   Overcast
6:00 PM 3.2 °F -12.2 °F -4.0 °F 72% 30.30 in 15.0 mi SE 10.4 mph - N/A   Mostly Cloudy
7:00 PM 3.2 °F -15.3 °F -7.6 °F 61% 30.28 in 15.0 mi SE 15.0 mph - N/A   Overcast
8:00 PM 3.2 °F -15.3 °F -4.0 °F 72% 30.26 in 15.0 mi SSE 15.0 mph - N/A   Overcast
9:00 PM 3.2 °F -16.5 °F -5.8 °F 66% 30.24 in 15.0 mi SSE 17.3 mph - N/A   Overcast
10:00 PM 3.2 °F -17.1 °F -4.0 °F 72% 30.20 in 15.0 mi SE 18.4 mph - N/A   Overcast
11:00 PM 5.0 °F -14.2 °F -4.0 °F 66% 30.16 in 15.0 mi SE 17.3 mph - N/A Snow Low Drifting Snow